Regional Weather Roundup
Issued by NWS Memphis, TN

Home | Current Version | Previous Version | Text Only | Print | Product List | Glossary On
Versions: 1 2 3 4 5 6 7 8 9 10 11 12 13 14 15 16 17 18 19 20 21 22 23 24 25 26 27 28 29 30 31 32 33 34 35 36 37 38 39 40 41 42 43 44 45 46 47 48 49 50
000
ASUS44 KMEG 230010
RWRMEG
MEMPHIS CWA HOURLY WEATHER ROUNDUP
NATIONAL WEATHER SERVICE MEMPHIS TN
700 PM CDT SUN APR 22 2018

...WEST TENNESSEE...

CITY           SKY/WX    TMP DP  RH WIND       PRES   REMARKS
MEMPHIS INTL   MOCLDY    65  59  81 E10       29.83S
6HR MIN TEMP:  63; 6HR MAX TEMP:  69; 6HR PCP: TRACE;

NWS MEMPHIS      N/A     63 N/A N/A MISG        N/A
JACKSON        LGT RAIN  61  60  97 E8        29.87F
6HR MIN TEMP:  60; 6HR MAX TEMP:  61; 6HR PCP:  1.73;

COVINGTON      CLOUDY    61  59  94 E10       29.86S
SOMERVILLE     MOCLDY    61  61 100 CALM      29.84S FOG
BOLIVAR        MOCLDY    61  59  94 E5        29.86R FOG
LEXINGTON      CLOUDY    59  57  94 E16       29.87F
SELMER         MOCLDY    59  59 100 E7G14     29.84S FOG
DYERSBURG      LGT RAIN  59  58  96 NE7       29.88F
6HR MIN TEMP:  58; 6HR MAX TEMP:  60;

UNION CITY     CLOUDY    59  57  94 E8G14     29.90F FOG
PARIS          CLOUDY    59  57  94 E13G22    29.92F FOG
HUNTINGDON     CLOUDY    59  57  94 E12G17    29.89F FOG


...EASTERN ARKANSAS...

CITY           SKY/WX    TMP DP  RH WIND       PRES   REMARKS
JONESBORO      CLOUDY    63  60  90 NW7       29.85S THUNDER
6HR MIN TEMP:  59; 6HR MAX TEMP:  67; 6HR PCP:  0.13;

WEST MEMPHIS   CLOUDY    66  60  81 W3        29.81F
6HR MIN TEMP:  64; 6HR MAX TEMP:  70;

BATESVILLE     CLOUDY    56  54  93 CALM      29.89R
6HR MIN TEMP:  56; 6HR MAX TEMP:  60; 6HR PCP:  0.13;

NEWPORT        CLOUDY    58  55  90 NW9       29.88R
6HR MIN TEMP:  58; 6HR MAX TEMP:  60; 6HR PCP: TRACE;

WALNUT RIDGE   CLOUDY    59  57  93 W3        29.86S
6HR MIN TEMP:  55; 6HR MAX TEMP:  60; 6HR PCP:  0.42;

BLYTHEVILLE    MOCLDY    61  58  90 E14       29.86F
6HR MIN TEMP:  58; 6HR MAX TEMP:  64; 6HR PCP:  0.01;

SEARCY         MOCLDY    60  57  89 NW3       29.88R
6HR MIN TEMP:  60; 6HR MAX TEMP:  65;

STUTTGART      MOCLDY    65  56  72 NW15      29.86R
6HR MIN TEMP:  64; 6HR MAX TEMP:  69;

PINE BLUFF     MOCLDY    65  54  67 NW10G18   29.86R
6HR MIN TEMP:  64; 6HR MAX TEMP:  68;

MONTICELLO     CLOUDY    65  55  70 W9G17     29.86R
6HR MIN TEMP:  65; 6HR MAX TEMP:  71;



...NORTH MISSISSIPPI...

CITY           SKY/WX    TMP DP  RH WIND       PRES   REMARKS
TUPELO         RAIN      61  59  93 N10       29.79F FOG
6HR MIN TEMP:  61; 6HR MAX TEMP:  66; 6HR PCP:  1.34;

BATESVILLE       N/A    N/A N/A N/A MISG        N/A
OLIVE BRANCH   MOCLDY    63  63 100 CALM      29.83F
TUNICA           N/A     61  57  88 NW6       29.83S
CLARKSDALE     MOCLDY    68  63  83 W8        29.83S
CORINTH        HVY RAIN  61  59  94 NE7       29.82S
GREENWOOD      FAIR      66  59  78 CALM      29.82S
6HR MIN TEMP:  63; 6HR MAX TEMP:  68; 6HR PCP:  0.10;

COLUMBUS       HVY RAIN  63  63 100 NW18      29.73R FOG
6HR MIN TEMP:  63; 6HR MAX TEMP:  65; 6HR PCP:  1.66;

STARKVILLE     RAIN      61  59  94 W7        29.80R
GOLDEN TRIANGL LGT RAIN  62  61  96 NW20G25   29.75S
6HR MIN TEMP:  62; 6HR MAX TEMP:  65; 6HR PCP:  1.79;



...SOUTHEAST MISSOURI...

CITY           SKY/WX    TMP DP  RH WIND       PRES   REMARKS
KENNETT        CLOUDY    61  61 100 E15       29.86S
MALDEN         FAIR      61  57  88 E12G17    29.91S
WEST PLAINS    CLOUDY    53  51  93 N9        29.90S
6HR MIN TEMP:  53; 6HR MAX TEMP:  54; 6HR PCP:  0.68;

POPLAR BLUFF   CLOUDY    59  58  96 E12G21    29.90R
6HR MIN TEMP:  53; 6HR MAX TEMP:  59; 6HR PCP:  0.24;

CAPE GIRARDEAU RAIN      59  57  93 E13       29.95R FOG
6HR MIN TEMP:  54; 6HR MAX TEMP:  59; 6HR PCP:  0.34;



...NORTHWEST ALABAMA...

CITY           SKY/WX    TMP DP  RH WIND       PRES   REMARKS
MUSCLE SHOALS  RAIN      60  57  89 E18G32    29.79F
6HR MIN TEMP:  60; 6HR MAX TEMP:  63; 6HR PCP:  0.59;



...MIDDLE TENNESSEE...

CITY           SKY/WX    TMP DP  RH WIND       PRES   REMARKS
NASHVILLE      LGT RAIN  59  56  89 E12       29.97F
6HR MIN TEMP:  59; 6HR MAX TEMP:  60; 6HR PCP:  0.46;

CLARKSVILLE    LGT RAIN  58  54  86 E13       29.97F
6HR MIN TEMP:  58; 6HR MAX TEMP:  60; 6HR PCP:  0.42;

COLUMBIA       MOCLDY    59  59 100 E18       29.88F FOG
LEWISBURG      CLOUDY    59  57  94 E5        29.94R FOG


...WESTERN KENTUCKY...

CITY           SKY/WX    TMP DP  RH WIND       PRES   REMARKS
PADUCAH        LGT RAIN  59  56  89 E14G24    29.95F FOG
6HR MIN TEMP:  54; 6HR MAX TEMP:  59; 6HR PCP:  0.93;

FORT CAMPBELL  LGT RAIN  57  57 100 E12       29.96F
6HR MIN TEMP:  58; 6HR MAX TEMP:  60; 6HR PCP:  0.36;



...CENTRAL ARKANSAS...

CITY           SKY/WX    TMP DP  RH WIND       PRES   REMARKS
LITTLE ROCK    MOCLDY    58  55  90 NW15      29.88R
6HR MIN TEMP:  58; 6HR MAX TEMP:  68;



SKY/WX REPORTED AS FAIR MEANS FEW OR NO CLOUDS BELOW
12 THOUSAND FEET.




USA.gov is the U.S. government's official web portal to all federal, state and local government web resources and services.